EIN496 EIDW-LPPR

Flight info

Callsign EIN496
Flight time N/A
Altitude 36000
Route PELIG2J PELIG DCT TUVEN/M078F360 DCT LASNO T9 BEGAS/N0448F370 DCT ELTEP/N0391F230 T328 ASPOR
Aircraft A320/M-SDE3FGHIRWY/LB1

Departure

Time 2026-05-06 16:49
Airport Dublin Airport (EIDW)

Arrival

Time N/A
Airport Francisco de Sá Carneiro Airport (LPPR)
Time Latitude Longitude Altitude Speed Heading
2026-05-06 16:02 53.42466 -6.24343 211 ft 0 kts 135°
2026-05-06 16:33 53.42467 -6.24345 215 ft 2 kts 135°
2026-05-06 16:33 53.42481 -6.24368 215 ft 3 kts 135°
2026-05-06 16:34 53.42483 -6.24371 214 ft 0 kts 135°
2026-05-06 16:37 53.42491 -6.24383 211 ft 0 kts 189°
2026-05-06 16:37 53.42497 -6.24382 216 ft 4 kts 204°
2026-05-06 16:37 53.42511 -6.24365 214 ft 0 kts 223°
2026-05-06 16:40 53.42507 -6.24377 213 ft 4 kts 237°
2026-05-06 16:40 53.42486 -6.24441 211 ft 7 kts 242°
2026-05-06 16:40 53.42455 -6.24526 214 ft 11 kts 241°
2026-05-06 16:40 53.42415 -6.24656 213 ft 15 kts 241°
2026-05-06 16:41 53.42342 -6.24805 211 ft 18 kts 225°
2026-05-06 16:41 53.42280 -6.24910 216 ft 8 kts 226°
2026-05-06 16:41 53.42245 -6.24971 216 ft 6 kts 227°
2026-05-06 16:41 53.42209 -6.25062 215 ft 10 kts 246°
2026-05-06 16:42 53.42205 -6.25187 210 ft 12 kts 274°
2026-05-06 16:42 53.42212 -6.25320 217 ft 10 kts 275°
2026-05-06 16:42 53.42219 -6.25451 211 ft 13 kts 275°
2026-05-06 16:42 53.42230 -6.25638 211 ft 19 kts 275°
2026-05-06 16:43 53.42243 -6.25877 211 ft 23 kts 275°
2026-05-06 16:43 53.42259 -6.26163 211 ft 26 kts 275°
2026-05-06 16:43 53.42275 -6.26476 213 ft 28 kts 276°
2026-05-06 16:43 53.42284 -6.26617 211 ft 0 kts 276°
2026-05-06 16:44 53.42284 -6.26620 215 ft 2 kts 276°
2026-05-06 16:44 53.42288 -6.26700 211 ft 11 kts 275°
2026-05-06 16:44 53.42298 -6.26882 211 ft 20 kts 275°
2026-05-06 16:45 53.42313 -6.27158 211 ft 27 kts 275°
2026-05-06 16:45 53.42331 -6.27485 211 ft 29 kts 275°
2026-05-06 16:45 53.42349 -6.27811 213 ft 27 kts 275°
2026-05-06 16:45 53.42363 -6.28074 211 ft 20 kts 275°
2026-05-06 16:46 53.42377 -6.28300 213 ft 19 kts 275°
2026-05-06 16:46 53.42388 -6.28517 211 ft 18 kts 275°
2026-05-06 16:46 53.42399 -6.28715 211 ft 16 kts 275°
2026-05-06 16:46 53.42409 -6.28892 219 ft 14 kts 275°
2026-05-06 16:47 53.42396 -6.29040 212 ft 12 kts 225°
2026-05-06 16:47 53.42321 -6.29076 210 ft 12 kts 176°
2026-05-06 16:47 53.42244 -6.29024 213 ft 12 kts 116°
2026-05-06 16:47 53.42237 -6.28897 213 ft 0 kts 95°
2026-05-06 16:48 53.42229 -6.28757 212 ft 42 kts 95°
2026-05-06 16:48 53.42178 -6.27852 217 ft 110 kts 95°
2026-05-06 16:49 53.42095 -6.26270 215 ft 162 kts 95°
2026-05-06 16:49 53.41971 -6.24343 784 ft 163 kts 97°
2026-05-06 16:49 53.41875 -6.22458 1470 ft 162 kts 93°
2026-05-06 16:49 53.41779 -6.20452 1836 ft 183 kts 93°
2026-05-06 16:50 53.41665 -6.18208 2184 ft 203 kts 93°
2026-05-06 16:50 53.41528 -6.15736 2498 ft 227 kts 93°
2026-05-06 16:50 53.41376 -6.13006 2908 ft 250 kts 93°
2026-05-06 16:50 53.41204 -6.09970 3649 ft 260 kts 93°
2026-05-06 16:51 53.41030 -6.06944 4486 ft 266 kts 93°
2026-05-06 16:51 53.40769 -6.03846 5294 ft 273 kts 107°
2026-05-06 16:51 53.39710 -6.01176 6081 ft 280 kts 142°
2026-05-06 16:51 53.37954 -5.99893 6862 ft 281 kts 173°
2026-05-06 16:52 53.36019 -5.99824 7660 ft 283 kts 187°
2026-05-06 16:52 53.34031 -6.00256 8488 ft 286 kts 191°
2026-05-06 16:52 53.32033 -6.00801 8898 ft 290 kts 190°
2026-05-06 16:52 53.30059 -6.01287 8990 ft 290 kts 189°
2026-05-06 16:53 53.28083 -6.01956 9012 ft 289 kts 200°
2026-05-06 16:53 53.26156 -6.03074 9726 ft 293 kts 199°
2026-05-06 16:53 53.24190 -6.04121 10399 ft 302 kts 198°
2026-05-06 16:53 53.22135 -6.05168 10627 ft 325 kts 198°
2026-05-06 16:54 53.19892 -6.06241 10953 ft 342 kts 193°
2026-05-06 16:54 53.17499 -6.06768 11588 ft 349 kts 186°
2026-05-06 16:54 53.15055 -6.07147 12315 ft 353 kts 187°
2026-05-06 16:54 53.12789 -6.07468 12987 ft 356 kts 183°